Date String (YYYY-MM-DD hh:mm:ss) UTC,Instrument flags,Ambient pressure (hPa),Sample flow (lpm),Bypass flow (lpm),Sample temperature (°C),Ambient temperature (°C),ASC tube jacket temperature (°C),LED temperature (°C),Box temperature (°C),Sample RH (%),Span deviation,Mass concentration (μg/m³),Mass concentration (μg/m³),Mass concentration (μg/m³)
DateTimeUTC,F1_M11,P_M11,Q1_M11,Q2_M11,T1_M11,T2_M11,T3_M11,T4_M11,T5_M11,U1_M11,ZSPAN_M11,X0_M11,X2_M11,X1_M11
2021-11-14 07:00:00,,0832.5,5.00,0.00,25.9,25.2,00.0,35.0,27.6,14.1,0000.0,0016.41,0003.12,0000.86
2021-11-14 07:01:00,,0832.6,4.99,0.00,25.9,25.1,00.0,35.0,27.7,14.1,0000.0,0016.72,0003.10,0000.85
2021-11-14 07:02:00,,0832.7,5.01,0.00,25.9,25.1,00.0,35.0,27.7,14.1,0000.0,0016.49,0003.09,0000.86
2021-11-14 07:03:00,,0832.7,4.99,0.00,25.9,25.1,00.0,35.0,27.7,14.1,0000.0,0015.68,0003.08,0000.87
2021-11-14 07:04:00,,0832.7,5.01,0.00,25.9,25.2,00.0,35.0,27.7,14.1,0000.0,0015.86,0003.09,0000.87
2021-11-14 07:05:00,,0832.7,5.01,0.00,25.9,25.2,00.0,35.0,27.7,14.0,0000.0,0015.50,0003.04,0000.89
2021-11-14 07:06:00,,0832.6,4.99,0.00,25.9,25.2,00.0,35.0,27.8,14.0,0000.0,0014.79,0002.99,0000.89
2021-11-14 07:07:00,,0832.5,5.01,0.00,25.9,25.2,00.0,35.0,27.7,14.1,0000.0,0013.53,0003.01,0000.89
2021-11-14 07:08:00,,0832.6,5.01,0.00,25.9,25.2,00.0,35.0,27.7,14.1,0000.0,0013.18,0003.05,0000.91
2021-11-14 07:09:00,,0832.6,4.99,0.00,25.9,25.2,00.0,35.0,27.7,14.1,0000.0,0013.00,0003.04,0000.93
2021-11-14 07:10:00,,0832.7,5.00,0.00,25.9,25.1,00.0,35.0,27.7,14.2,0000.0,0012.45,0003.04,0000.94
2021-11-14 07:11:00,,0832.7,5.00,0.00,25.9,25.1,00.0,35.0,27.6,14.2,0000.0,0013.27,0003.07,0000.94
2021-11-14 07:12:00,,0832.7,5.00,0.00,25.9,25.1,00.0,35.0,27.6,14.3,0000.0,0012.37,0003.03,0000.94
2021-11-14 07:13:00,,0832.7,4.99,0.00,25.8,25.1,00.0,34.9,27.6,14.3,0000.0,0012.28,0003.04,0000.94
2021-11-14 07:14:00,,0832.7,5.01,0.00,25.8,25.1,00.0,34.9,27.6,14.3,0000.0,0012.15,0003.04,0000.95
2021-11-14 07:15:00,,0832.7,5.00,0.00,25.9,25.1,00.0,34.9,27.6,14.3,0000.0,0012.15,0003.05,0000.94
2021-11-14 07:16:00,,0832.8,4.99,0.00,25.8,25.1,00.0,34.9,27.6,14.3,0000.0,0011.62,0003.07,0000.92
2021-11-14 07:17:00,,0832.7,5.00,0.00,25.8,25.1,00.0,34.9,27.6,14.3,0000.0,0012.19,0003.12,0000.91
2021-11-14 07:18:00,,0832.8,5.01,0.00,25.8,25.1,00.0,34.9,27.6,14.3,0000.0,0013.56,0003.08,0000.90
2021-11-14 07:19:00,,0832.8,5.01,0.00,25.8,25.1,00.0,34.9,27.6,14.3,0000.0,0014.20,0003.07,0000.87
2021-11-14 07:20:00,,0832.8,5.00,0.00,25.8,25.1,00.0,34.9,27.6,14.3,0000.0,0015.00,0003.10,0000.85
2021-11-14 07:21:00,,0832.8,4.99,0.00,25.8,25.1,00.0,34.9,27.7,14.3,0000.0,0015.50,0003.04,0000.84
2021-11-14 07:22:00,,0832.8,5.00,0.00,25.8,25.1,00.0,34.9,27.7,14.2,0000.0,0015.31,0002.96,0000.81
2021-11-14 07:23:00,,0832.7,5.01,0.00,25.9,25.1,00.0,34.9,27.7,14.2,0000.0,0016.43,0003.04,0000.81
2021-11-14 07:24:00,,0832.8,5.00,0.00,25.8,25.1,00.0,34.9,27.7,14.2,0000.0,0018.11,0002.99,0000.79
2021-11-14 07:25:00,,0832.7,4.98,0.00,25.8,25.1,00.0,34.9,27.7,14.2,0000.0,0018.94,0002.99,0000.77
2021-11-14 07:26:00,,0832.7,5.00,0.00,25.8,25.1,00.0,34.9,27.6,14.2,0000.0,0018.28,0002.97,0000.77
2021-11-14 07:27:00,,0832.8,5.02,0.00,25.8,25.1,00.0,34.9,27.6,14.2,0000.0,0018.33,0003.06,0000.77
2021-11-14 07:28:00,,0832.9,4.99,0.00,25.8,25.0,00.0,34.9,27.5,14.2,0000.0,0018.81,0003.08,0000.78
2021-11-14 07:29:00,,0832.8,5.00,0.00,25.8,25.0,00.0,34.9,27.6,14.2,0000.0,0018.23,0003.10,0000.78
2021-11-14 07:30:00,,0832.7,4.99,0.00,25.8,25.0,00.0,34.8,27.6,14.2,0000.0,0017.55,0003.09,0000.77
2021-11-14 07:31:00,,0832.7,5.01,0.00,25.8,25.0,00.0,34.8,27.6,14.2,0000.0,0017.17,0003.10,0000.78
2021-11-14 07:32:00,,0832.6,4.99,0.00,25.8,25.0,00.0,34.8,27.5,14.2,0000.0,0017.27,0003.14,0000.78
2021-11-14 07:33:00,,0832.6,4.99,0.00,25.7,25.0,00.0,34.8,27.5,14.1,0000.0,0016.29,0003.10,0000.78
2021-11-14 07:34:00,,0832.6,5.01,0.00,25.7,24.9,00.0,34.8,27.5,14.2,0000.0,0015.76,0003.04,0000.78
2021-11-14 07:35:00,,0832.7,5.01,0.00,25.7,24.8,00.0,34.8,27.5,14.2,0000.0,0014.31,0003.00,0000.79
2021-11-14 07:36:00,,0832.7,4.99,0.00,25.7,24.8,00.0,34.8,27.4,14.2,0000.0,0013.44,0002.91,0000.80
2021-11-14 07:37:00,,0832.7,5.00,0.00,25.7,24.8,00.0,34.8,27.4,14.2,0000.0,0013.58,0002.80,0000.79
2021-11-14 07:38:00,,0832.7,4.99,0.00,25.6,24.8,00.0,34.8,27.4,14.2,0000.0,0014.27,0002.62,0000.77
2021-11-14 07:39:00,,0832.6,5.00,0.00,25.6,24.8,00.0,34.7,27.3,14.2,0000.0,0013.98,0002.62,0000.78
2021-11-14 07:40:00,,0832.7,5.00,0.00,25.6,24.7,00.0,34.7,27.3,14.2,0000.0,0013.74,0002.61,0000.78
2021-11-14 07:41:00,,0832.6,5.00,0.00,25.6,24.7,00.0,34.7,27.2,14.3,0000.0,0013.34,0002.65,0000.79
2021-11-14 07:42:00,,0832.6,5.00,0.00,25.5,24.6,00.0,34.7,27.2,14.3,0000.0,0013.88,0002.63,0000.78
2021-11-14 07:43:00,,0832.6,5.00,0.00,25.5,24.6,00.0,34.7,27.2,14.3,0000.0,0013.02,0002.54,0000.77
2021-11-14 07:44:00,,0832.5,5.01,0.00,25.4,24.5,00.0,34.7,27.1,14.4,0000.0,0013.16,0002.68,0000.77
2021-11-14 07:45:00,,0832.5,4.98,0.00,25.4,24.4,00.0,34.6,27.1,14.4,0000.0,0012.84,0002.77,0000.78
2021-11-14 07:46:00,,0832.6,5.01,0.00,25.4,24.4,00.0,34.6,27.1,14.4,0000.0,0013.27,0002.81,0000.79
2021-11-14 07:47:00,,0832.6,5.01,0.00,25.3,24.3,00.0,34.6,27.0,14.5,0000.0,0013.10,0002.96,0000.78
2021-11-14 07:48:00,,0832.6,5.00,0.00,25.3,24.3,00.0,34.6,27.0,14.5,0000.0,0012.89,0003.09,0000.79
2021-11-14 07:49:00,,0832.6,4.99,0.00,25.3,24.2,00.0,34.5,26.9,14.5,0000.0,0012.48,0003.23,0000.82
2021-11-14 07:50:00,,0832.6,5.01,0.00,25.2,24.2,00.0,34.5,26.9,14.6,0000.0,0012.99,0003.24,0000.83
2021-11-14 07:51:00,,0832.5,5.00,0.00,25.2,24.1,00.0,34.5,26.8,14.6,0000.0,0013.17,0003.23,0000.83
2021-11-14 07:52:00,,0832.4,5.00,0.00,25.1,24.1,00.0,34.4,26.8,14.6,0000.0,0013.07,0003.20,0000.83
2021-11-14 07:53:00,,0832.4,5.01,0.00,25.1,24.0,00.0,34.4,26.8,14.7,0000.0,0012.51,0003.19,0000.84
2021-11-14 07:54:00,,0832.3,5.00,0.00,25.1,24.0,00.0,34.4,26.7,14.7,0000.0,0012.85,0003.27,0000.86
2021-11-14 07:55:00,,0832.3,4.99,0.00,25.0,23.9,00.0,34.4,26.6,14.7,0000.0,0013.02,0003.26,0000.87
2021-11-14 07:56:00,,0832.2,5.00,0.00,25.0,23.9,00.0,34.3,26.6,14.8,0000.0,0013.98,0003.24,0000.87
2021-11-14 07:57:00,,0832.1,5.01,0.00,24.9,23.8,00.0,34.3,26.5,14.9,0000.0,0013.82,0003.23,0000.87
2021-11-14 07:58:00,,0832.2,5.01,0.00,24.9,23.8,00.0,34.2,26.5,14.9,0000.0,0014.79,0003.22,0000.88
2021-11-14 07:59:00,,0832.1,4.99,0.00,24.8,23.8,00.0,34.2,26.4,15.0,0000.0,0014.69,0003.20,0000.88
